Time,TemperatureF,DewpointF,PressureIn,WindDirection,WindDirectionDegrees,WindSpeedMPH,WindSpeedGustMPH,Humidity,HourlyPrecipIn,Conditions,Clouds,dailyrainin,SolarRadiationWatts/m^2,SoftwareType,DateUTC
2013-05-29 00:02:00,52.0,52.0,-100.00,SSE,157,1.0,3.0,99,0.02,,,0.03,0.000000,,2013-05-29 05:02:00,
2013-05-29 00:33:00,52.0,52.0,-100.00,South,188,1.0,3.0,99,0.00,,,0.03,0.000000,,2013-05-29 05:33:00,
2013-05-29 00:42:00,52.0,52.0,-100.00,South,188,1.0,3.0,99,0.00,,,0.03,0.000000,,2013-05-29 05:42:00,
2013-05-29 00:52:00,52.0,52.0,-100.00,South,188,1.0,3.0,99,0.00,,,0.03,0.000000,,2013-05-29 05:52:00,
2013-05-29 01:01:00,52.0,52.0,-100.00,South,188,1.0,3.0,99,0.00,,,0.03,0.000000,,2013-05-29 06:01:00,
2013-05-29 01:11:00,52.0,52.0,-100.00,South,188,1.0,3.0,99,0.00,,,0.03,0.000000,,2013-05-29 06:11:00,
2013-05-29 01:32:00,52.0,52.0,-100.00,WSW,254,3.0,5.0,100,0.00,,,0.03,0.000000,,2013-05-29 06:32:00,
2013-05-29 01:42:00,52.0,52.0,-100.00,WSW,254,3.0,5.0,100,0.00,,,0.03,0.000000,,2013-05-29 06:42:00,
2013-05-29 01:52:00,52.0,52.0,-100.00,WSW,254,3.0,5.0,100,0.00,,,0.03,0.000000,,2013-05-29 06:52:00,
2013-05-29 02:01:00,52.0,52.0,-100.00,WSW,254,3.0,5.0,100,0.00,,,0.03,0.000000,,2013-05-29 07:01:00,
2013-05-29 02:11:00,52.0,52.0,-100.00,WSW,254,3.0,5.0,100,0.00,,,0.03,0.000000,,2013-05-29 07:11:00,
2013-05-29 02:34:00,52.0,52.0,-100.00,WNW,295,4.0,6.0,100,0.00,,,0.03,0.000000,,2013-05-29 07:34:00,
2013-05-29 02:42:00,52.0,52.0,-100.00,WNW,295,4.0,6.0,100,0.00,,,0.03,0.000000,,2013-05-29 07:42:00,
2013-05-29 02:52:00,52.0,52.0,-100.00,WNW,295,4.0,6.0,100,0.00,,,0.03,0.000000,,2013-05-29 07:52:00,
2013-05-29 03:02:00,52.0,52.0,-100.00,WNW,295,4.0,6.0,100,0.00,,,0.03,0.000000,,2013-05-29 08:02:00,
2013-05-29 03:11:00,52.0,52.0,-100.00,WNW,295,4.0,6.0,100,0.00,,,0.03,0.000000,,2013-05-29 08:11:00,
2013-05-29 03:32:00,52.0,52.0,-100.00,WNW,284,3.0,7.0,100,0.00,,,0.03,0.000000,,2013-05-29 08:32:00,
2013-05-29 03:42:00,52.0,52.0,-100.00,WNW,284,3.0,7.0,100,0.00,,,0.03,0.000000,,2013-05-29 08:42:00,
2013-05-29 03:52:00,52.0,52.0,-100.00,WNW,284,3.0,7.0,100,0.00,,,0.03,0.000000,,2013-05-29 08:52:00,
2013-05-29 04:01:00,52.0,52.0,-100.00,WNW,284,3.0,7.0,100,0.00,,,0.03,0.000000,,2013-05-29 09:01:00,
2013-05-29 04:11:00,52.0,52.0,-100.00,WNW,284,3.0,7.0,100,0.00,,,0.03,0.000000,,2013-05-29 09:11:00,
2013-05-29 04:12:00,52.0,52.0,-100.00,West,273,3.0,6.0,100,0.00,,,0.03,0.000000,,2013-05-29 09:12:00,
2013-05-29 04:33:00,52.0,52.0,-100.00,West,273,3.0,6.0,100,0.00,,,0.03,0.000000,,2013-05-29 09:33:00,
2013-05-29 04:42:00,52.0,52.0,-100.00,West,273,3.0,6.0,100,0.00,,,0.03,0.000000,,2013-05-29 09:42:00,
2013-05-29 04:52:00,52.0,52.0,-100.00,West,273,3.0,6.0,100,0.00,,,0.03,0.000000,,2013-05-29 09:52:00,
2013-05-29 05:03:00,52.0,52.0,-100.00,West,273,3.0,6.0,100,0.00,,,0.03,0.000000,,2013-05-29 10:03:00,
2013-05-29 05:12:00,52.0,52.0,-100.00,NNW,328,4.0,8.0,100,0.00,,,0.03,0.000000,,2013-05-29 10:12:00,
2013-05-29 05:33:00,52.0,52.0,-100.00,NNW,328,4.0,8.0,100,0.00,,,0.03,0.000000,,2013-05-29 10:33:00,
2013-05-29 05:42:00,52.0,52.0,-100.00,NNW,328,4.0,8.0,100,0.00,,,0.03,0.000000,,2013-05-29 10:42:00,
2013-05-29 05:53:00,52.0,52.0,-100.00,NNW,328,4.0,8.0,100,0.00,,,0.03,0.000000,,2013-05-29 10:53:00,
2013-05-29 06:02:00,52.0,52.0,-100.00,NNW,328,4.0,8.0,100,0.00,,,0.03,0.000000,,2013-05-29 11:02:00,
2013-05-29 06:32:00,53.0,53.0,-100.00,WSW,244,4.0,7.0,100,0.00,,,-99.99,15.000000,,2013-05-29 11:32:00,
2013-05-29 06:42:00,53.0,53.0,-100.00,WSW,244,4.0,7.0,100,0.00,,,-99.99,15.000000,,2013-05-29 11:42:00,
2013-05-29 06:52:00,53.0,53.0,-100.00,WSW,244,4.0,7.0,100,0.00,,,-99.99,15.000000,,2013-05-29 11:52:00,
2013-05-29 07:01:00,53.0,53.0,-100.00,WSW,244,4.0,7.0,100,0.00,,,-99.99,15.000000,,2013-05-29 12:01:00,
2013-05-29 07:11:00,53.0,53.0,-100.00,WSW,244,4.0,7.0,100,0.00,,,-99.99,15.000000,,2013-05-29 12:11:00,
2013-05-29 07:32:00,54.0,54.0,-100.00,WSW,250,4.0,9.0,99,0.01,,,0.04,70.000000,,2013-05-29 12:32:00,
2013-05-29 07:42:00,54.0,54.0,-100.00,WSW,250,4.0,9.0,99,0.01,,,0.04,70.000000,,2013-05-29 12:42:00,
2013-05-29 07:52:00,54.0,54.0,-100.00,WSW,250,4.0,9.0,99,0.01,,,0.04,70.000000,,2013-05-29 12:52:00,
2013-05-29 08:02:00,54.0,54.0,-100.00,WSW,250,4.0,9.0,99,0.01,,,0.04,70.000000,,2013-05-29 13:02:00,
2013-05-29 08:11:00,54.0,54.0,-100.00,WSW,250,4.0,9.0,99,0.01,,,0.04,70.000000,,2013-05-29 13:11:00,
2013-05-29 08:32:00,55.0,54.0,-100.00,WNW,290,4.0,10.0,96,0.00,,,0.04,134.000000,,2013-05-29 13:32:00,
2013-05-29 08:42:00,55.0,54.0,-100.00,WNW,290,4.0,10.0,96,0.00,,,0.04,134.000000,,2013-05-29 13:42:00,
2013-05-29 08:53:00,55.0,54.0,-100.00,WNW,290,4.0,10.0,96,0.00,,,0.04,134.000000,,2013-05-29 13:53:00,
2013-05-29 09:02:00,55.0,54.0,-100.00,WNW,290,4.0,10.0,96,0.00,,,0.04,134.000000,,2013-05-29 14:02:00,
2013-05-29 09:11:00,55.0,54.0,-100.00,WNW,290,4.0,10.0,96,0.00,,,0.04,134.000000,,2013-05-29 14:11:00,
2013-05-29 09:32:00,59.0,56.0,-100.00,WSW,239,3.0,8.0,90,0.00,,,0.04,218.000000,,2013-05-29 14:32:00,
2013-05-29 09:42:00,59.0,56.0,-100.00,WSW,239,3.0,8.0,90,0.00,,,0.04,218.000000,,2013-05-29 14:42:00,
2013-05-29 09:52:00,59.0,56.0,-100.00,WSW,239,3.0,8.0,90,0.00,,,0.04,218.000000,,2013-05-29 14:52:00,
2013-05-29 10:01:00,59.0,56.0,-100.00,WSW,239,3.0,8.0,90,0.00,,,0.04,218.000000,,2013-05-29 15:01:00,
2013-05-29 10:11:00,59.0,56.0,-100.00,WSW,239,3.0,8.0,90,0.00,,,0.04,218.000000,,2013-05-29 15:11:00,
2013-05-29 10:12:00,63.0,57.0,-100.00,West,268,3.0,6.0,81,0.00,,,0.04,356.000000,,2013-05-29 15:12:00,
2013-05-29 10:33:00,63.0,57.0,-100.00,West,268,3.0,6.0,81,0.00,,,0.04,356.000000,,2013-05-29 15:33:00,
2013-05-29 10:43:00,63.0,57.0,-100.00,West,268,3.0,6.0,81,0.00,,,0.04,356.000000,,2013-05-29 15:43:00,
2013-05-29 10:53:00,63.0,57.0,-100.00,West,268,3.0,6.0,81,0.00,,,0.04,356.000000,,2013-05-29 15:53:00,
2013-05-29 11:03:00,63.0,57.0,-100.00,West,268,3.0,6.0,81,0.00,,,0.04,356.000000,,2013-05-29 16:03:00,
2013-05-29 11:12:00,66.0,57.0,-100.00,WSW,243,4.0,8.0,74,0.00,,,0.04,467.000000,,2013-05-29 16:12:00,
2013-05-29 11:33:00,66.0,57.0,-100.00,WSW,243,4.0,8.0,74,0.00,,,0.04,467.000000,,2013-05-29 16:33:00,
2013-05-29 11:42:00,66.0,57.0,-100.00,WSW,243,4.0,8.0,74,0.00,,,0.04,467.000000,,2013-05-29 16:42:00,
2013-05-29 11:52:00,66.0,57.0,-100.00,WSW,243,4.0,8.0,74,0.00,,,0.04,467.000000,,2013-05-29 16:52:00,
2013-05-29 12:02:00,66.0,57.0,-100.00,WSW,243,4.0,8.0,74,0.00,,,0.04,467.000000,,2013-05-29 17:02:00,
2013-05-29 12:12:00,67.0,57.0,-100.00,West,259,5.0,11.0,70,0.00,,,0.04,484.000000,,2013-05-29 17:12:00,
2013-05-29 12:32:00,67.0,57.0,-100.00,West,259,5.0,11.0,70,0.00,,,0.04,484.000000,,2013-05-29 17:32:00,
2013-05-29 12:43:00,67.0,57.0,-100.00,West,259,5.0,11.0,70,0.00,,,0.04,484.000000,,2013-05-29 17:43:00,
2013-05-29 12:52:00,67.0,57.0,-100.00,West,259,5.0,11.0,70,0.00,,,0.04,484.000000,,2013-05-29 17:52:00,
2013-05-29 13:01:00,67.0,57.0,-100.00,West,259,5.0,11.0,70,0.00,,,0.04,484.000000,,2013-05-29 18:01:00,
2013-05-29 13:32:00,70.0,57.0,-100.00,SW,232,7.0,12.0,64,0.00,,,0.04,561.000000,,2013-05-29 18:32:00,
2013-05-29 13:42:00,70.0,57.0,-100.00,SW,232,7.0,12.0,64,0.00,,,0.04,561.000000,,2013-05-29 18:42:00,
2013-05-29 13:52:00,70.0,57.0,-100.00,SW,232,7.0,12.0,64,0.00,,,0.04,561.000000,,2013-05-29 18:52:00,
2013-05-29 14:02:00,70.0,57.0,-100.00,SW,232,7.0,12.0,64,0.00,,,0.04,561.000000,,2013-05-29 19:02:00,
2013-05-29 14:11:00,70.0,57.0,-100.00,SW,232,7.0,12.0,64,0.00,,,0.04,561.000000,,2013-05-29 19:11:00,
2013-05-29 14:32:00,73.0,57.0,-100.00,WSW,244,7.0,15.0,57,0.00,,,0.04,936.000000,,2013-05-29 19:32:00,
2013-05-29 14:44:00,73.0,57.0,-100.00,WSW,244,7.0,15.0,57,0.00,,,0.04,936.000000,,2013-05-29 19:44:00,
2013-05-29 14:53:00,73.0,57.0,-100.00,WSW,244,7.0,15.0,57,0.00,,,0.04,936.000000,,2013-05-29 19:53:00,
2013-05-29 15:03:00,73.0,57.0,-100.00,WSW,244,7.0,15.0,57,0.00,,,0.04,936.000000,,2013-05-29 20:03:00,
2013-05-29 15:11:00,73.0,57.0,-100.00,WSW,244,7.0,15.0,57,0.00,,,0.04,936.000000,,2013-05-29 20:11:00,
2013-05-29 15:12:00,76.0,57.0,-100.00,SW,235,6.0,13.0,52,0.00,,,0.04,934.000000,,2013-05-29 20:12:00,
2013-05-29 15:33:00,76.0,57.0,-100.00,SW,235,6.0,13.0,52,0.00,,,0.04,934.000000,,2013-05-29 20:33:00,
2013-05-29 15:42:00,76.0,57.0,-100.00,SW,235,6.0,13.0,52,0.00,,,0.04,934.000000,,2013-05-29 20:42:00,
2013-05-29 15:53:00,76.0,57.0,-100.00,SW,235,6.0,13.0,52,0.00,,,0.04,934.000000,,2013-05-29 20:53:00,
2013-05-29 16:02:00,76.0,57.0,-100.00,SW,235,6.0,13.0,52,0.00,,,0.04,934.000000,,2013-05-29 21:02:00,
2013-05-29 16:12:00,77.0,58.0,-100.00,SW,222,7.0,14.0,52,0.00,,,0.04,805.000000,,2013-05-29 21:12:00,
2013-05-29 16:33:00,77.0,58.0,-100.00,SW,222,7.0,14.0,52,0.00,,,0.04,805.000000,,2013-05-29 21:33:00,
2013-05-29 16:44:00,77.0,58.0,-100.00,SW,222,7.0,14.0,52,0.00,,,0.04,805.000000,,2013-05-29 21:44:00,
2013-05-29 16:53:00,77.0,58.0,-100.00,SW,222,7.0,14.0,52,0.00,,,0.04,805.000000,,2013-05-29 21:53:00,
2013-05-29 17:03:00,77.0,58.0,-100.00,SW,222,7.0,14.0,52,0.00,,,0.04,805.000000,,2013-05-29 22:03:00,
2013-05-29 17:12:00,77.0,60.0,-100.00,South,189,6.0,13.0,55,0.00,,,0.04,645.000000,,2013-05-29 22:12:00,
2013-05-29 17:34:00,77.0,60.0,-100.00,South,189,6.0,13.0,55,0.00,,,0.04,645.000000,,2013-05-29 22:34:00,
2013-05-29 17:42:00,77.0,60.0,-100.00,South,189,6.0,13.0,55,0.00,,,0.04,645.000000,,2013-05-29 22:42:00,
2013-05-29 17:53:00,77.0,60.0,-100.00,South,189,6.0,13.0,55,0.00,,,0.04,645.000000,,2013-05-29 22:53:00,
2013-05-29 18:02:00,77.0,60.0,-100.00,South,189,6.0,13.0,55,0.00,,,0.04,645.000000,,2013-05-29 23:02:00,
2013-05-29 18:33:00,76.0,60.0,-100.00,SSW,211,7.0,12.0,58,0.00,,,0.04,445.000000,,2013-05-29 23:33:00,
2013-05-29 18:42:00,76.0,60.0,-100.00,SSW,211,7.0,12.0,58,0.00,,,0.04,445.000000,,2013-05-29 23:42:00,
2013-05-29 18:53:00,76.0,60.0,-100.00,SSW,211,7.0,12.0,58,0.00,,,0.04,445.000000,,2013-05-29 23:53:00,
2013-05-29 19:01:00,76.0,60.0,-100.00,SSW,211,7.0,12.0,58,0.00,,,0.04,445.000000,,2013-05-30 00:01:00,
2013-05-29 19:11:00,76.0,60.0,-100.00,SSW,211,7.0,12.0,58,0.00,,,0.04,445.000000,,2013-05-30 00:11:00,
2013-05-29 20:32:00,65.0,60.0,-100.00,SE,142,3.0,10.0,84,-99.99,,,0.04,29.000000,,2013-05-30 01:32:00,
2013-05-29 20:42:00,65.0,60.0,-100.00,SE,142,3.0,10.0,84,-99.99,,,0.04,29.000000,,2013-05-30 01:42:00,
2013-05-29 20:52:00,65.0,60.0,-100.00,SE,142,3.0,10.0,84,-99.99,,,0.04,29.000000,,2013-05-30 01:52:00,
2013-05-29 21:01:00,65.0,60.0,-100.00,SE,142,3.0,10.0,84,-99.99,,,0.04,29.000000,,2013-05-30 02:01:00,
2013-05-29 21:11:00,65.0,60.0,-100.00,SE,142,3.0,10.0,84,-99.99,,,0.04,29.000000,,2013-05-30 02:11:00,
2013-05-29 21:32:00,62.0,59.0,-100.00,South,187,3.0,6.0,91,0.00,,,0.04,2.000000,,2013-05-30 02:32:00,
2013-05-29 21:42:00,62.0,59.0,-100.00,South,187,3.0,6.0,91,0.00,,,0.04,2.000000,,2013-05-30 02:42:00,
2013-05-29 21:52:00,62.0,59.0,-100.00,South,187,3.0,6.0,91,0.00,,,0.04,2.000000,,2013-05-30 02:52:00,
2013-05-29 22:02:00,62.0,59.0,-100.00,South,187,3.0,6.0,91,0.00,,,0.04,2.000000,,2013-05-30 03:02:00,
2013-05-29 22:11:00,62.0,59.0,-100.00,South,187,3.0,6.0,91,0.00,,,0.04,2.000000,,2013-05-30 03:11:00,
2013-05-29 22:12:00,60.0,58.0,-100.00,SE,141,2.0,7.0,93,0.00,,,0.03,0.000000,,2013-05-30 03:12:00,
2013-05-29 22:33:00,60.0,58.0,-100.00,SE,141,2.0,7.0,93,0.00,,,0.03,0.000000,,2013-05-30 03:33:00,
2013-05-29 22:43:00,60.0,58.0,-100.00,SE,141,2.0,7.0,93,0.00,,,0.03,0.000000,,2013-05-30 03:43:00,
2013-05-29 22:53:00,60.0,58.0,-100.00,SE,141,2.0,7.0,93,0.00,,,0.03,0.000000,,2013-05-30 03:53:00,
2013-05-29 23:03:00,60.0,58.0,-100.00,SE,141,2.0,7.0,93,0.00,,,0.03,0.000000,,2013-05-30 04:03:00,
2013-05-29 23:12:00,58.0,57.0,-100.00,ESE,103,3.0,5.0,96,0.00,,,0.01,0.000000,,2013-05-30 04:12:00,
2013-05-29 23:33:00,58.0,57.0,-100.00,ESE,103,3.0,5.0,96,0.00,,,0.01,0.000000,,2013-05-30 04:33:00,
2013-05-29 23:42:00,58.0,57.0,-100.00,ESE,103,3.0,5.0,96,0.00,,,0.01,0.000000,,2013-05-30 04:42:00,
2013-05-29 23:53:00,58.0,57.0,-100.00,ESE,103,3.0,5.0,96,0.00,,,0.01,0.000000,,2013-05-30 04:53:00,